Wind_Speed
23 23 24 26 29 30 32 33 34 35 36 37 37 35 34 34 38 39 44 49 54 56 60 58 46 38 39 38 36 33 32 29 23 19 11 6 13 29 27 16 19 17 19
21 21 23 25 27 29 31 33 35 35 36 36 37 35 34 34 36 38 41 46 51 53 56 59 51 39 38 39 37 33 32 30 26 20 14 4 12 32 30 25 19 18 13
20 19 20 23 25 27 29 32 34 36 36 35 36 35 34 33 34 37 39 43 47 51 54 56 57 45 36 36 36 33 32 32 29 23 15 8 6 24 34 36 29 22 25
19 19 19 20 22 24 28 30 33 35 36 36 35 35 34 32 33 36 36 40 43 47 51 53 55 54 41 34 34 33 31 31 30 25 19 9 4 8 20 34 36 33 31
19 18 19 19 20 22 25 29 32 34 36 37 35 35 35 33 32 34 36 37 40 44 47 50 52 56 52 36 31 31 32 30 30 27 22 12 6 3 7 15 28 33 31
21 20 19 20 21 22 24 27 31 33 35 37 36 36 36 35 32 31 34 35 37 40 44 48 51 52 54 50 34 29 29 29 28 26 24 20 13 7 5 6 10 19 26
23 23 21 21 22 24 25 26 29 32 34 35 37 37 35 36 32 31 32 35 35 37 41 44 47 50 50 51 48 34 28 26 26 24 23 21 18 17 10 3 3 2 9
27 25 23 24 23 24 25 27 28 31 32 34 35 37 36 36 34 31 30 33 36 35 38 41 44 47 49 49 50 47 33 26 24 23 20 19 18 16 16 14 7 1 1
32 28 26 26 26 25 26 27 29 30 32 33 34 35 37 35 35 32 30 30 34 35 35 38 41 43 46 49 50 51 44 30 23 21 19 16 15 15 14 14 13 12 8
34 32 31 30 29 28 29 28 29 31 32 32 32 33 35 36 34 33 30 29 31 34 34 35 38 40 43 46 50 52 50 38 24 19 17 14 12 12 13 12 12 12 12
33 34 34 34 33 32 31 31 30 31 32 32 32 31 32 34 34 33 31 28 28 31 34 33 35 37 41 44 47 51 54 49 31 18 15 14 10 10 10 11 12 12 12
33 33 35 35 36 35 34 34 33 32 32 32 32 32 30 30 33 33 32 29 27 29 31 32 33 35 38 41 45 50 55 57 40 23 13 12 9 9 9 10 11 12 13
32 34 35 34 36 36 36 36 35 34 33 32 31 31 30 29 30 32 31 30 27 26 29 30 30 33 36 39 43 48 53 59 55 27 14 9 9 7 7 8 9 10 12
35 34 34 33 34 35 36 36 36 36 34 32 31 30 29 29 28 28 29 29 27 25 25 28 29 30 33 37 40 45 51 57 66 35 15 7 7 7 7 7 8 10 11
37 38 37 35 34 35 35 35 35 36 35 33 32 30 28 28 27 26 27 27 27 25 23 24 26 29 31 34 38 41 47 54 61 59 22 7 5 7 8 9 8 9 9
42 42 43 40 38 36 37 35 34 35 35 34 33 30 28 27 27 25 24 25 26 25 23 22 23 25 28 31 34 38 43 48 55 63 39 12 7 11 12 11 10 9 9
38 38 43 46 43 41 41 37 36 34 34 34 33 30 29 26 26 25 25 23 24 25 23 22 21 23 25 28 30 33 38 41 47 56 59 31 17 17 15 12 10 9 8
40 39 40 42 48 47 43 42 38 37 34 33 33 30 30 26 25 24 24 22 21 22 23 20 20 20 22 24 26 29 32 35 39 45 49 36 26 24 17 12 9 6 6
44 43 45 44 43 47 49 44 41 39 37 34 33 31 30 28 26 25 24 23 21 20 21 22 19 19 19 20 22 25 27 30 31 35 41 37 24 21 16 10 7 4 4
52 50 48 45 44 43 45 48 46 40 39 37 34 32 29 29 27 25 24 23 21 20 18 20 20 18 17 18 18 20 22 24 26 26 30 33 31 22 13 8 6 5 6
50 47 46 46 43 44 42 46 49 47 41 39 38 35 30 29 29 28 24 24 22 21 18 17 19 20 17 15 16 16 18 19 20 21 21 23 25 25 23 19 14 14 15
47 47 46 45 46 45 44 45 49 48 46 42 41 38 34 31 30 29 26 24 23 22 20 17 16 19 19 15 13 14 14 15 15 16 17 16 17 18 18 18 18 17 16
49 51 48 46 45 46 46 46 48 50 49 47 42 41 37 34 32 31 28 25 24 23 22 20 16 18 18 18 14 12 13 13 13 12 13 14 14 13 12 13 13 14 13
51 50 49 47 46 46 47 48 50 50 52 51 45 42 41 37 34 32 30 27 25 24 24 23 19 15 17 17 17 13 13 13 12 12 11 12 12 12 13 12 11 11 12
59 60 58 57 58 58 49 50 52 52 53 51 50 43 43 40 36 34 31 29 26 26 25 24 22 18 16 17 17 17 14 14 14 13 12 11 12 11 12 12 13 13 13
66 68 71 71 71 70 59 52 54 54 51 53 51 47 43 42 38 35 32 30 28 26 26 26 25 23 18 16 20 18 18 16 16 16 14 14 13 12 12 12 13 14 14
Wind_Direction
336 339 343 345 346 346 347 348 348 348 348 350 349 349 350 351 350 354 360 2 6 7 8 7 7 0 356 354 354 353 354 351 345 344 340 283 249 209 218 207 193 173 151
332 336 339 343 347 348 348 348 348 348 349 351 350 350 350 352 351 354 360 3 5 7 7 8 7 8 3 0 359 358 357 356 355 345 351 312 233 214 224 238 238 237 204
324 328 334 338 345 348 349 349 348 350 350 352 350 350 350 352 351 354 358 3 6 8 9 11 10 7 4 4 3 2 0 0 2 360 350 359 239 221 234 244 248 249 248
318 320 325 330 336 342 345 348 350 350 352 352 351 351 349 352 351 353 355 0 4 7 9 12 11 9 6 0 2 3 2 2 5 9 8 5 347 229 228 239 247 252 253
306 309 313 318 325 332 337 341 346 350 352 353 351 351 348 351 352 353 353 357 1 5 7 9 11 12 10 4 356 359 2 3 5 9 18 17 2 334 240 238 239 246 249
293 297 302 308 315 323 330 333 337 344 349 352 352 351 349 349 350 352 354 354 358 1 4 8 10 10 11 10 1 354 355 359 3 7 11 23 20 344 307 250 242 237 246
281 287 292 296 305 313 319 326 330 335 341 347 351 350 350 348 348 348 351 354 354 358 1 4 6 7 8 10 9 2 351 353 357 2 7 11 21 28 24 347 221 230 249
270 276 283 288 294 302 310 317 322 326 333 339 345 349 350 348 345 345 347 352 352 355 357 1 3 4 6 7 9 7 360 351 349 353 0 8 14 25 34 41 38 51 127
267 270 274 277 285 292 299 307 314 319 325 331 337 343 348 348 345 342 344 347 350 353 355 357 1 3 3 5 6 7 5 357 348 347 350 0 12 19 31 35 41 49 50
271 269 270 273 277 283 290 297 304 310 316 322 329 335 342 345 345 343 341 344 348 351 353 355 358 0 2 2 4 4 5 0 351 344 342 351 4 21 23 33 40 39 39
272 272 271 271 273 277 282 288 295 301 308 314 320 327 333 341 344 343 342 341 344 349 352 354 356 359 1 2 2 2 2 4 353 342 343 343 356 17 32 31 36 40 42
272 271 272 272 273 274 277 282 287 293 300 306 313 319 325 332 340 342 341 340 341 345 350 353 354 358 0 2 2 0 1 1 360 346 346 341 356 11 31 38 40 41 41
274 273 272 273 273 274 275 277 282 287 292 298 305 311 317 323 333 339 340 341 338 340 345 350 353 355 358 1 2 2 1 0 5 351 348 345 3 27 36 45 48 48 47
274 273 275 275 273 273 274 275 277 282 286 291 297 303 309 314 322 332 340 339 338 335 340 345 350 353 357 359 2 4 3 2 1 3 358 4 12 37 51 62 57 54 54
267 270 273 274 275 275 274 275 276 278 282 286 290 296 301 304 312 321 333 339 338 335 334 339 346 351 355 358 1 5 5 5 3 10 8 30 57 75 85 83 79 70 65
276 273 272 272 273 275 275 275 276 277 279 281 284 289 294 298 302 310 320 333 337 337 334 335 340 346 352 356 0 5 6 8 7 6 22 41 89 100 101 99 91 83 79
287 284 280 276 270 271 274 275 274 275 277 278 280 282 286 291 295 301 307 320 333 336 333 332 334 340 347 352 357 4 7 11 13 13 13 37 91 109 109 107 96 79 66
285 284 283 282 277 269 266 272 274 272 273 275 275 277 280 284 287 291 296 305 320 332 332 330 329 335 342 347 353 1 9 11 18 19 21 31 92 110 115 108 99 90 72
287 286 285 283 282 278 272 265 267 271 269 270 272 272 275 279 282 285 288 293 303 319 330 328 326 327 336 342 348 356 7 11 17 25 27 35 60 100 109 124 129 105 73
290 292 290 286 282 280 276 270 265 264 265 265 266 267 271 274 278 280 281 285 292 303 320 328 325 322 325 335 341 349 1 10 13 23 32 34 42 49 52 59 46 23 360
287 289 289 289 282 274 274 269 265 262 260 261 261 263 265 269 273 276 277 279 282 289 302 318 326 319 317 324 331 340 352 2 10 14 25 35 40 43 52 48 24 1 351
288 288 287 284 278 275 271 267 264 260 258 258 258 259 261 264 268 272 275 274 276 279 286 298 316 319 312 311 319 325 338 349 359 8 12 19 28 38 38 42 46 43 32
283 282 281 281 279 275 274 267 264 261 258 253 256 256 256 259 263 267 271 273 271 272 274 284 292 319 310 305 305 310 316 330 338 350 2 4 6 8 19 26 28 31 35
278 274 274 278 279 277 273 270 262 262 260 256 249 253 253 253 257 261 266 269 270 268 267 271 280 294 314 301 297 295 297 306 318 324 333 347 351 351 349 351 358 359 358
271 269 273 277 280 282 272 267 264 259 258 257 251 247 251 250 251 256 260 265 268 267 265 265 270 278 292 307 292 288 285 288 298 306 309 318 332 334 336 335 337 340 340
274 273 273 274 275 274 270 261 259 257 253 255 253 245 246 250 248 250 254 259 262 264 264 262 262 267 275 285 305 282 280 281 284 290 294 298 309 318 320 323 325 328 331
Height
5796 5791 5786 5781 5776 5770 5764 5757 5751 5744 5737 5730 5722 5714 5707 5699 5690 5682 5673 5661 5648 5636 5622 5608 5596 5586 5578 5569 5560 5551 5543 5534 5528 5522 5518 5514 5508 5508 5509 5511 5514 5515 5514
5792 5788 5784 5779 5774 5768 5762 5755 5749 5743 5735 5727 5720 5712 5704 5697 5688 5680 5671 5661 5649 5637 5624 5611 5597 5587 5579 5570 5561 5553 5544 5536 5529 5522 5518 5515 5510 5511 5509 5511 5512 5515 5516
5789 5785 5781 5776 5771 5766 5760 5754 5747 5740 5733 5726 5718 5710 5702 5694 5687 5679 5670 5660 5649 5638 5626 5614 5600 5588 5579 5571 5562 5553 5546 5538 5530 5523 5518 5516 5513 5512 5511 5510 5511 5513 5516
5784 5781 5777 5772 5768 5763 5757 5751 5745 5738 5731 5724 5716 5708 5700 5692 5685 5677 5668 5660 5650 5640 5628 5616 5604 5591 5580 5572 5564 5556 5548 5539 5532 5525 5518 5515 5513 5512 5511 5510 5509 5511 5514
5779 5775 5772 5768 5764 5759 5754 5748 5742 5736 5729 5722 5714 5707 5698 5691 5684 5676 5667 5659 5650 5640 5629 5618 5607 5595 5583 5572 5564 5557 5550 5542 5533 5527 5520 5515 5512 5510 5508 5507 5507 5507 5509
5773 5770 5767 5764 5760 5755 5750 5745 5739 5734 5727 5720 5713 5705 5697 5689 5682 5674 5666 5658 5649 5640 5630 5620 5609 5598 5586 5575 5565 5557 5550 5543 5536 5529 5523 5517 5512 5509 5507 5505 5504 5504 5506
5766 5763 5761 5758 5754 5751 5746 5741 5736 5730 5724 5718 5711 5703 5695 5687 5680 5672 5665 5657 5648 5640 5631 5621 5611 5600 5589 5578 5567 5558 5550 5543 5538 5531 5525 5520 5515 5510 5506 5504 5503 5503 5503
5757 5755 5754 5751 5748 5745 5741 5737 5732 5726 5721 5715 5709 5701 5694 5686 5678 5671 5664 5656 5648 5640 5631 5622 5612 5602 5592 5581 5570 5560 5550 5543 5537 5532 5527 5522 5517 5513 5509 5505 5503 5502 5501
5747 5747 5745 5743 5741 5738 5735 5731 5727 5722 5717 5711 5706 5699 5692 5685 5677 5669 5662 5655 5648 5640 5632 5623 5614 5604 5594 5584 5573 5562 5552 5543 5537 5532 5527 5523 5519 5515 5511 5508 5506 5504 5502
5739 5738 5736 5735 5733 5731 5728 5725 5721 5717 5712 5707 5702 5696 5690 5683 5676 5668 5661 5654 5647 5639 5631 5623 5615 5605 5596 5586 5576 5565 5554 5543 5535 5530 5527 5523 5519 5517 5514 5511 5508 5506 5504
5729 5728 5727 5725 5724 5723 5720 5717 5714 5711 5707 5702 5697 5692 5686 5680 5674 5667 5659 5652 5646 5639 5631 5623 5615 5607 5597 5588 5578 5567 5556 5544 5534 5528 5525 5522 5520 5518 5515 5513 5511 5509 5507
5718 5717 5716 5715 5715 5713 5712 5709 5707 5704 5700 5696 5692 5687 5682 5676 5671 5665 5657 5651 5644 5637 5631 5623 5616 5608 5599 5589 5580 5569 5558 5545 5534 5527 5523 5522 5520 5519 5517 5516 5514 5512 5510
5707 5706 5704 5704 5704 5703 5702 5700 5698 5696 5693 5690 5686 5682 5678 5673 5667 5662 5655 5648 5642 5636 5630 5624 5616 5609 5600 5591 5582 5572 5560 5546 5533 5524 5521 5520 5520 5519 5518 5518 5517 5515 5513
5698 5695 5694 5694 5692 5692 5692 5691 5689 5687 5685 5682 5679 5676 5672 5668 5663 5658 5653 5647 5641 5635 5629 5623 5617 5610 5602 5594 5584 5575 5564 5550 5535 5523 5519 5519 5519 5520 5520 5519 5519 5518 5517
5687 5686 5684 5683 5683 5682 5681 5680 5679 5677 5677 5674 5671 5669 5666 5663 5659 5654 5649 5644 5638 5632 5627 5622 5616 5610 5603 5596 5587 5578 5568 5556 5541 5525 5518 5517 5518 5520 5521 5521 5521 5521 5519
5677 5677 5675 5673 5672 5671 5670 5670 5669 5668 5667 5665 5663 5661 5658 5656 5653 5649 5645 5640 5635 5630 5625 5620 5615 5609 5604 5597 5590 5581 5573 5562 5549 5533 5519 5516 5518 5521 5523 5523 5523 5522 5521
5666 5665 5664 5663 5662 5661 5659 5659 5659 5657 5656 5655 5654 5652 5650 5649 5646 5644 5640 5636 5631 5627 5622 5618 5613 5608 5603 5598 5592 5584 5577 5569 5558 5544 5529 5520 5520 5522 5524 5524 5523 5522 5521
5655 5654 5653 5651 5650 5649 5647 5648 5648 5647 5647 5645 5644 5644 5642 5641 5639 5637 5634 5631 5628 5623 5619 5614 5610 5606 5602 5598 5592 5587 5580 5573 5565 5554 5543 5532 5526 5525 5525 5526 5524 5523 5522
5645 5644 5641 5639 5638 5637 5637 5636 5636 5636 5635 5635 5634 5634 5633 5632 5631 5629 5627 5625 5622 5619 5615 5611 5607 5604 5600 5596 5592 5588 5582 5576 5570 5562 5553 5545 5537 5533 5530 5527 5526 5526 5525
5632 5631 5629 5627 5626 5624 5624 5624 5625 5624 5625 5624 5623 5623 5624 5623 5622 5621 5620 5618 5616 5614 5611 5607 5604 5601 5598 5594 5591 5587 5583 5578 5573 5567 5561 5554 5547 5541 5537 5535 5532 5530 5528
5618 5616 5615 5614 5612 5611 5609 5610 5611 5612 5612 5613 5612 5612 5613 5614 5613 5612 5612 5611 5609 5608 5605 5602 5600 5597 5594 5591 5589 5586 5582 5578 5574 5569 5565 5560 5554 5549 5543 5539 5536 5533 5531
5602 5601 5600 5600 5599 5598 5597 5596 5597 5598 5599 5600 5601 5601 5602 5603 5603 5603 5603 5603 5602 5601 5600 5597 5594 5592 5590 5587 5585 5583 5580 5577 5573 5569 5565 5562 5558 5553 5549 5544 5540 5536 5533
5588 5587 5586 5585 5585 5584 5584 5584 5584 5585 5586 5586 5589 5591 5591 5591 5593 5593 5594 5594 5593 5593 5593 5591 5589 5587 5585 5583 5580 5578 5577 5574 5571 5568 5564 5561 5558 5554 5550 5546 5543 5539 5536
5571 5571 5570 5569 5569 5570 5570 5570 5569 5570 5571 5573 5574 5578 5580 5580 5581 5582 5583 5584 5585 5584 5585 5584 5583 5581 5579 5578 5576 5574 5572 5570 5568 5565 5562 5559 5556 5552 5549 5546 5542 5539 5537
5554 5552 5551 5551 5551 5553 5555 5556 5555 5554 5556 5559 5560 5564 5567 5569 5570 5571 5573 5574 5575 5575 5576 5576 5575 5574 5573 5571 5570 5569 5567 5565 5563 5561 5558 5556 5553 5549 5547 5544 5540 5537 5535
5531 5530 5530 5530 5532 5533 5535 5537 5538 5539 5541 5544 5546 5548 5553 5556 5558 5559 5561 5563 5565 5566 5566 5567 5567 5567 5566 5564 5563 5562 5561 5559 5558 5556 5554 5552 5549 5546 5543 5541 5538 5535 5532